COSMOS 2251 DEB, 35038

Orbit data source: Space-Track

COSMOS 2251 DEB, 35038 is space debris in LEO originally from a launch on Wed, 16 Jun 1993 UTC launched from the Plesetsk Missile And Space Complex (PKMTR). The debris from Iridium 33, an American commercial communications satellite, has been tracked extensively since its accidental collision with the defunct Russian satellite Cosmos 2251 in 2009. This event, occurring at high speed in low Earth orbit (LEO), generated thousands of pieces of space debris, significantly increasing the risk of further collisions. The Iridium 33 debris cloud has impacted space traffic management and orbital debris mitigation strategies, making it a subject of ongoing study in space situational awareness.

Loading next visibility...
Identifier
35038, 1993-036AHB
Orbit
LEO
Country
Flag of CISCIS
Related business
Manufacturer
Unknown
Mission
Spacecraft
Bus & Motor
Unknown
Mass
Unknown
Launch date (UTC)
1993-06-16 (33 years ago)
Launch vehicle
Unknown
Launch site
Plesetsk Missile And Space Complex (PKMTR)
Object type
Payload
Rocket body
Debris
Shape & HBR
Unknown shape, 0.1 m
Radar Cross Section
Small (<0.1 m²)

Expand to show TLE details & history
Last TLE update: 9 hours ago

TLE from 9 hours ago
0 COSMOS 2251 DEB
1 35038U 93036AHB 26123.05747824  .00002584  00000-0  10205-2 0  9990
2 35038  74.1044 148.4662 0109077  97.9088 292.1445 14.26295560875835
Epoch: 2026-05-03T01:22Z
TLE epoch observation values (Epoch: 2026-05-03T01:22:46.119Z)
Latitude
27.73582°
Longitude
-84.627°
Altitude
778.428 km
Speed
7.482 km/s
True Right ascension
10h 28m 07s
True Declination
27° 35' 41"
Sunlit
Object was in daylight at epoch
Visualization orbit readout
Latitude
Unknown
Longitude
Unknown
Altitude
Unknown
Speed
Unknown
Apparent Right ascension
Unknown
Apparent Declination
Unknown
Sunlit
N/A
Visualization observer readout
Local Sidereal Time
17:57:23
Azimuth
Unknown
Elevation
Unknown
Doppler factor
Unknown
Orbital elements
Apogee altitude
880.085 km
Perigee altitude
723.452 km
Semi-major axis
7,179.906 km
Eccentricity
0.01091
Inclination
74.1044°
RAAN
148.4662°
Arg. of periapsis
97.9088°
True anomaly
290.98087°
Mean anomaly
292.1445°
Eccentric anomaly
291.56327°
Mean motion
3.56751 °/min
Orbital period
100.91 mins
BSTAR
0.0010205

Documentation

Showing up to 5 results
|